[[{"header":{"parameterUnit":"m.s-1","parameterCategory":1,"la1":30.2991,"la2":30.254,"lo1":-89.0895,"lo2":-89.0444,"dy":0.0017,"dx":0.0017,"nx":28,"ny":28,"refTime":"2023-10-26T09:00:00:Z","depth":0,"parameterNumber":2,"parameterNumberName":"U-component_of_WINDS"},"data":[0,0,0,0,0,0,0,0,0,0,0,0,0,0,0,0,0,0,0,0,0,0,0,0,0,0,0,0,0,0,0,0,0,0,0,0,0,0,0,0,0,0,0,0,0,0,0,0,0,0,0,0,0,0,0,0,0,0,-4.0687,-4.0686,0,-4.0634,-4.0633,-4.0633,-4.0506,-4.0504,-4.0501,-4.0499,-4.0447,-4.0448,-4.0449,0,0,0,0,0,0,0,0,0,0,0,0,0,-4.0684,-4.0685,-4.0687,-4.0686,-4.0686,-4.0634,-4.0633,-4.0633,-4.0507,-4.0504,-4.05,-4.0497,-4.0447,-4.0448,-4.0449,0,0,0,0,0,0,0,0,0,0,0,0,0,-4.0664,-4.0685,-4.0687,-4.0617,-4.061,-4.0634,-4.0633,-4.0632,-4.0508,-4.0504,-4.05,-4.0496,-4.0446,-4.0448,-4.0449,-4.0538,0,0,-4.0454,-4.0455,0,0,0,0,0,0,0,0,-4.0665,-4.0664,-4.0628,-4.0622,-4.0614,-4.0573,-4.0613,-4.0601,-4.0509,-4.0547,-4.0499,-4.0494,-4.0492,-4.049,-4.0488,-4.0536,-4.0534,-4.0454,-4.0455,-4.0456,-4.0457,0,0,0,0,0,0,0,-4.0667,-4.0666,-4.0666,-4.0627,-4.0619,-4.0589,-4.0582,-4.061,-4.0542,-4.0543,-4.0534,-4.0529,-4.0488,-4.0487,-4.0486,-4.0533,-4.0454,-4.0456,-4.0457,-4.0457,-4.0654,-4.0658,0,0,0,0,0,0,-4.0678,-4.0668,-4.0668,-4.0664,-4.063,-4.0593,-4.0584,-4.059,-4.0542,-4.053,-4.0532,-4.0523,-4.0486,-4.0485,-4.0484,-4.0586,-4.0456,-4.0458,-4.0459,-4.065,-4.0655,-4.066,0,0,0,0,0,0,-4.0678,-4.0679,-4.067,-4.0664,-4.066,-4.0597,-4.0604,-4.0591,-4.059,-4.0534,-4.0521,-4.0544,-4.0483,-4.0482,-4.0526,-4.0583,-4.0458,-4.046,-4.0645,-4.0652,-4.0657,-4.0791,0,0,0,0,0,0,-4.0679,-4.068,-4.0712,-4.0665,-4.0661,-4.0712,-4.0608,-4.0593,-4.0593,-4.0581,-4.0541,-4.0531,-4.048,-4.0525,-4.0528,-4.0583,-4.0461,-4.064,-4.0648,-4.0655,-4.0781,-4.0801,-4.0818,0,0,0,0,0,-4.0679,-4.0751,-4.0714,-4.0715,-4.0699,-4.0715,-4.0713,-4.0652,-4.0598,-4.0631,-4.0595,-4.0532,-4.0577,-4.053,-4.0533,-4.0589,-4.0636,-4.0645,-4.0655,-4.0773,-4.0797,-4.0818,0,0,0,0,0,0,-4.0806,-4.0744,-4.0701,-4.0761,-4.0744,-4.0694,-4.0732,-4.0679,-4.0678,-4.0667,-4.0592,-4.0584,-4.064,-4.0619,-4.0568,-4.0674,-4.0596,-4.0607,-4.0685,-4.0708,-4.0726,-4.0729,-4.0462,0,0,0,0,0,-4.0841,-4.0858,-4.0803,-4.0861,-4.0855,-4.0796,-4.08,-4.0755,-4.0735,-4.0728,-4.0695,-4.0679,-4.069,-4.0698,-4.0704,-4.0779,-4.0769,-4.0819,-4.0838,-4.0853,-4.0863,-4.0903,-4.0925,-4.0691,-4.0691,-4.0691,0,0,-4.0913,-4.0881,-4.0896,-4.0886,-4.0867,-4.0888,-4.079,-4.0816,-4.0831,-4.0732,-4.0771,-4.0748,-4.0726,-4.0786,-4.0811,-4.077,-4.0926,-4.0865,-4.0878,-4.0879,-4.0915,-4.0937,-4.0957,-4.0698,-4.0696,-4.0695,0,0,-4.1054,-4.1032,-4.1078,-4.1063,-4.1037,-4.0998,-4.1009,-4.0968,-4.0948,-4.0987,-4.0914,-4.0932,-4.0951,-4.0939,-4.0935,-4.1077,-4.102,-4.1082,-4.1178,-4.1218,-4.1236,-4.1252,-4.1304,-4.1323,-4.1092,-4.1092,-4.1093,0,-4.1147,-4.1174,-4.1109,-4.114,-4.1138,-4.105,-4.1098,-4.1086,-4.1065,-4.1066,-4.1021,-4.1045,-4.1024,-4.1081,-4.1117,-4.1117,-4.1129,-4.1085,-4.1239,-4.1254,-4.1268,-4.1316,-4.1336,-4.11,-4.1099,-4.1098,-4.1098,0,-4.129,-4.1311,-4.1351,-4.1333,-4.1336,-4.1375,-4.1318,-4.133,-4.1286,-4.1253,-4.1295,-4.1267,-4.1267,-4.1278,-4.1235,-4.1331,-4.1307,-4.1252,-4.1171,-4.1299,-4.1343,-4.1361,-4.1111,-4.1108,-4.1106,-4.1104,0,0,-4.1506,-4.1453,-4.1469,-4.1461,-4.1428,-4.1444,-4.1481,-4.1481,-4.1493,-4.1483,-4.1512,-4.1533,-4.1482,-4.1479,-4.1434,-4.147,-4.1586,-4.141,-4.1409,-4.1444,-4.1691,-4.1732,-4.1755,-4.1549,-4.1552,-4.1555,-4.1693,0,-4.1639,-4.1697,-4.1642,-4.1712,-4.1731,-4.165,-4.1683,-4.1668,-4.1639,-4.1653,-4.1621,-4.1636,-4.1568,-4.1566,-4.1598,-4.1565,-4.1635,-4.1555,-4.1577,-4.1579,-4.1584,-4.1777,-4.182,-4.1951,-4.171,-4.1713,-4.1715,0,-4.18,-4.1798,-4.187,-4.1835,-4.1842,-4.1872,-4.1869,-4.1883,-4.1865,-4.1842,-4.184,-4.1787,-4.1823,-4.1747,-4.1796,-4.1743,-4.175,-4.1736,-4.174,-4.1739,-4.1654,-4.1781,-4.1992,-4.2011,-4.1741,-4.1739,-4.1737,0,-4.1951,-4.1966,-4.2011,-4.2007,-4.1968,-4.1991,-4.1976,-4.1954,-4.1959,-4.1958,-4.1961,-4.1964,-4.1966,-4.1971,-4.1921,-4.187,-4.1978,-4.1897,-4.1961,-4.1962,-4.1985,-4.1984,-4.22,-4.1992,-4.1992,-4.1991,-4.1991,0,-4.2104,-4.2152,-4.2079,-4.2107,-4.2159,-4.2096,-4.215,-4.2127,-4.2109,-4.2133,-4.2064,-4.2088,-4.2022,-4.2039,-4.2001,-4.2049,-4.2051,-4.2034,-4.2023,-4.2039,-4.2042,-4.2042,-4.2031,-4.1996,-4.1995,-4.1994,-4.1993,0,-4.228,-4.2233,-4.2277,-4.2238,-4.2229,-4.2269,-4.2236,-4.2262,-4.223,-4.2261,-4.2265,-4.2215,-4.2233,-4.2184,-4.2194,-4.2169,-4.2239,-4.2213,-4.2244,-4.2236,-4.2303,-4.2297,-4.2525,-4.2552,-4.2328,-4.233,-4.2332,0,-4.238,-4.2414,-4.238,-4.239,-4.2379,-4.2398,-4.2403,-4.2344,-4.2353,-4.2338,-4.2366,-4.2378,-4.2384,-4.2417,-4.2383,-4.2391,-4.2365,-4.2445,-4.2366,-4.2382,-4.2366,-4.2365,-4.2368,-4.246,-4.2463,-4.2465,-4.2467,0,-4.2563,-4.2539,-4.2548,-4.2551,-4.2559,-4.2558,-4.2553,-4.2566,-4.2504,-4.2518,-4.2535,-4.254,-4.2552,-4.2566,-4.2567,-4.2553,-4.2501,-4.2493,-4.2508,-4.2524,-4.2541,-4.2533,-4.2288,-4.2487,-4.2485,-4.2484,-4.2482,-4.2482,-4.2703,-4.2731,-4.2712,-4.2725,-4.2716,-4.2714,-4.2736,-4.2708,-4.2721,-4.2726,-4.2692,-4.2717,-4.2702,-4.2699,-4.2691,-4.2712,-4.2675,-4.2697,-4.2703,-4.2709,-4.272,-4.2539,-4.2712,-4.2711,-4.2711,-4.271,-4.271,0,-4.2882,-4.2867,-4.288,-4.2876,-4.2888,-4.2838,-4.2831,-4.2844,-4.2867,-4.2858,-4.2866,-4.2888,-4.2902,-4.2871,-4.288,-4.2903,-4.2879,-4.2908,-4.2905,-4.2903,-4.2752,-4.2737,-4.2927,-4.2927,-4.2927,-4.2927,-4.2926,-4.2926,-4.2976,-4.3022,-4.2997,-4.3038,-4.3022,-4.3046,-4.3047,-4.3046,-4.3038,-4.3065,-4.3076,-4.3056,-4.3039,-4.3047,-4.3059,-4.3049,-4.3056,-4.3093,-4.3075,-4.2934,-4.2913,-4.2893,-4.2879,-4.3095,-4.3095,-4.3224,-4.3226,-4.3227]},{"header":{"parameterUnit":"m.s-1","parameterCategory":1,"la1":30.2991,"la2":30.254,"lo1":-89.0895,"lo2":-89.0444,"dy":0.0017,"dx":0.0017,"nx":28,"ny":28,"refTime":"2023-10-26T09:00:00:Z","depth":0,"parameterNumber":3,"parameterNumberName":"V-component_of_WINDS"},"data":[0,0,0,0,0,0,0,0,0,0,0,0,0,0,0,0,0,0,0,0,0,0,0,0,0,0,0,0,0,0,0,0,0,0,0,0,0,0,0,0,0,0,0,0,0,0,0,0,0,0,0,0,0,0,0,0,0,0,1.1849,1.1849,0,1.1878,1.1878,1.1878,1.1963,1.1964,1.1966,1.1968,1.1992,1.1991,1.199,0,0,0,0,0,0,0,0,0,0,0,0,0,1.1863,1.1863,1.1849,1.1849,1.185,1.1878,1.1878,1.1878,1.1962,1.1965,1.1967,1.1969,1.1993,1.1991,1.199,0,0,0,0,0,0,0,0,0,0,0,0,0,1.1871,1.1862,1.1849,1.1895,1.1899,1.1878,1.1878,1.1879,1.1962,1.1965,1.1967,1.197,1.1993,1.1992,1.199,1.1924,0,0,1.1985,1.1984,0,0,0,0,0,0,0,0,1.187,1.187,1.1888,1.1892,1.1897,1.192,1.1892,1.1894,1.1961,1.1938,1.1968,1.1971,1.1966,1.1966,1.1966,1.1925,1.1926,1.1985,1.1984,1.1983,1.1983,0,0,0,0,0,0,0,1.187,1.1869,1.186,1.1888,1.1893,1.1913,1.1917,1.1893,1.1936,1.194,1.1946,1.1949,1.1968,1.1967,1.1967,1.1927,1.1985,1.1983,1.1982,1.1982,1.1836,1.1833,0,0,0,0,0,0,1.1863,1.1868,1.1859,1.1861,1.189,1.1911,1.1915,1.1909,1.1936,1.1943,1.1946,1.1953,1.1968,1.1968,1.1968,1.1893,1.1983,1.1982,1.1981,1.1839,1.1835,1.1832,0,0,0,0,0,0,1.1863,1.1861,1.1858,1.1867,1.1868,1.1908,1.19,1.1908,1.1907,1.1941,1.1949,1.1937,1.197,1.197,1.1935,1.1895,1.1981,1.1979,1.1842,1.1837,1.1833,1.1743,0,0,0,0,0,0,1.1863,1.1861,1.1837,1.1865,1.1867,1.1825,1.1898,1.1907,1.1905,1.1913,1.1934,1.194,1.1973,1.1937,1.1934,1.1894,1.1978,1.1846,1.184,1.1835,1.1749,1.1736,1.1724,0,0,0,0,0,1.1863,1.1809,1.1835,1.1834,1.1838,1.1823,1.1824,1.1863,1.1901,1.1877,1.1899,1.194,1.1901,1.1933,1.1929,1.1889,1.1848,1.1842,1.1835,1.1755,1.1738,1.1724,0,0,0,0,0,0,1.1772,1.1813,1.1843,1.1796,1.1806,1.1837,1.1808,1.1844,1.1842,1.1849,1.1898,1.1902,1.186,1.1871,1.1907,1.1828,1.1881,1.1874,1.1821,1.1806,1.1794,1.1791,1.1977,0,0,0,0,0,1.1747,1.1733,1.1769,1.1724,1.1728,1.1767,1.1762,1.1792,1.1803,1.1807,1.1826,1.1834,1.1824,1.1816,1.1808,1.1752,1.1758,1.1723,1.1711,1.17,1.1692,1.1664,1.1649,1.181,1.181,1.1811,0,0,1.1694,1.1715,1.1702,1.1707,1.1717,1.1701,1.1769,1.1748,1.1736,1.1803,1.1772,1.1787,1.1799,1.1753,1.1734,1.1761,1.165,1.1692,1.1683,1.1681,1.1656,1.1641,1.1627,1.1806,1.1807,1.1807,0,0,1.1588,1.1603,1.1568,1.1578,1.1595,1.1622,1.1613,1.164,1.1653,1.1623,1.1673,1.1659,1.164,1.1647,1.1648,1.1548,1.1586,1.1545,1.1477,1.145,1.1437,1.1426,1.139,1.1376,1.1537,1.1537,1.1537,0,1.1519,1.1498,1.1545,1.1521,1.1521,1.1584,1.1549,1.1556,1.1568,1.1566,1.1598,1.1577,1.1589,1.1547,1.1523,1.1521,1.1513,1.1541,1.1435,1.1425,1.1415,1.1381,1.1368,1.1532,1.1532,1.1533,1.1533,0,1.1412,1.1397,1.1366,1.1379,1.1376,1.1346,1.1388,1.1379,1.1411,1.1434,1.1403,1.1421,1.1418,1.1411,1.144,1.1372,1.1389,1.1427,1.1481,1.1394,1.1363,1.135,1.1524,1.1526,1.1528,1.1529,0,0,1.1247,1.1289,1.1277,1.1284,1.1308,1.1296,1.127,1.127,1.1261,1.1269,1.1247,1.1231,1.1268,1.1269,1.1299,1.1275,1.1195,1.1317,1.1318,1.1293,1.1122,1.1092,1.1076,1.1221,1.1219,1.1217,1.1121,0,1.1147,1.1106,1.1148,1.1097,1.1083,1.1144,1.1121,1.1133,1.1155,1.1145,1.1169,1.1157,1.1206,1.1207,1.1186,1.1209,1.1161,1.1217,1.12,1.1199,1.1194,1.106,1.1028,1.0936,1.1109,1.1107,1.1105,0,1.1024,1.1028,1.0976,1.1006,1.1002,1.098,1.0985,1.0975,1.099,1.1008,1.101,1.1049,1.1025,1.1079,1.1046,1.1083,1.1079,1.109,1.1087,1.1086,1.1145,1.1054,1.0907,1.0893,1.1087,1.1088,1.109,0,1.0908,1.0901,1.0869,1.0874,1.0907,1.0891,1.0904,1.0922,1.092,1.0923,1.0922,1.0922,1.0921,1.092,1.0957,1.0994,1.0919,1.0977,1.0932,1.0931,1.0912,1.0912,1.0761,1.0911,1.0911,1.0912,1.0912,0,1.0791,1.0757,1.0818,1.0798,1.0762,1.0812,1.0774,1.0793,1.0809,1.0794,1.0846,1.083,1.0882,1.0871,1.09,1.0868,1.0867,1.088,1.0888,1.0875,1.0873,1.0871,1.0878,1.0908,1.0909,1.0909,1.091,0,1.0654,1.0694,1.0664,1.0699,1.0708,1.0679,1.0709,1.0692,1.0719,1.0699,1.0697,1.0737,1.0728,1.0766,1.0762,1.0782,1.0734,1.0754,1.0729,1.0735,1.0688,1.0691,1.0529,1.0511,1.0673,1.0672,1.067,0,1.0576,1.0552,1.0586,1.058,1.0591,1.0581,1.058,1.0629,1.0625,1.0642,1.0622,1.0618,1.0617,1.0599,1.0627,1.0625,1.0644,1.0588,1.0643,1.0631,1.0642,1.0642,1.064,1.0575,1.0573,1.0571,1.057,0,1.0433,1.0455,1.0452,1.0456,1.0454,1.0459,1.0468,1.046,1.0512,1.0505,1.0498,1.0497,1.0495,1.0489,1.0494,1.0506,1.0546,1.0553,1.0542,1.0527,1.0514,1.052,1.0696,1.0555,1.0557,1.0558,1.0559,1.0559,1.0322,1.0304,1.0326,1.0321,1.0334,1.0341,1.0327,1.0353,1.0348,1.0352,1.0381,1.0367,1.0385,1.0395,1.0404,1.0394,1.042,1.0404,1.04,1.0395,1.0387,1.0517,1.0395,1.0395,1.0396,1.0396,1.0396,0,1.0181,1.0199,1.0195,1.0207,1.0203,1.0244,1.0257,1.025,1.0239,1.0252,1.0251,1.0243,1.0238,1.0268,1.0267,1.0253,1.0272,1.0251,1.0252,1.0254,1.0364,1.0373,1.0237,1.0237,1.0237,1.0237,1.0237,1.0237,1.0108,1.0079,1.0103,1.0081,1.0099,1.0088,1.0092,1.0099,1.011,1.0099,1.0097,1.0117,1.0137,1.0139,1.0137,1.0146,1.0142,1.0115,1.013,1.0231,1.0247,1.0261,1.027,1.0115,1.0114,1.0022,1.0021,1.002]}]]